Weather Service Report


037 
ASUS41 KRLX 240010
RWRRLX
West Virginia Regional Weather Roundup
National Weather Service Charleston WV
700 PM EST SUN NOV 23 2014

Note: "fair" indicates few or no clouds below 12,000 feet with no
significant weather and/or obstructions to visibility.

WVZ003-240100-
Northern Panhandle of West Virginia
  
CITY           SKY/WX    TMP DP  RH WIND       PRES   REMARKS
WHEELING       CLOUDY    60  40  47 SE16G23   29.71F                  
$$

WVZ009-240100-
Northwest West Virginia
  
CITY           SKY/WX    TMP DP  RH WIND       PRES   REMARKS
PARKERSBURG    LGT RAIN  59  44  57 SE10G18   29.71F                  
$$

WVZ006-240100-
Western West Virginia
  
CITY           SKY/WX    TMP DP  RH WIND       PRES   REMARKS
HUNTINGTON     LGT RAIN  56  50  80 SE6       29.61F                  
$$

WVZ015-240100-
West Central West Virginia
  
CITY           SKY/WX    TMP DP  RH WIND       PRES   REMARKS
CHARLESTON     CLOUDY    60  48  64 SE15G25   29.65F                  
$$

WVZ022-031-240100-
North Central West Virginia
  
CITY           SKY/WX    TMP DP  RH WIND       PRES   REMARKS
CLARKSBURG     LGT RAIN  58  47  66 SE12      29.75F                  
MORGANTOWN     CLOUDY    59  39  47 SE14      29.78F                  
$$

WVZ025-035-042-045-240100-
Southern West Virginia
  
CITY           SKY/WX    TMP DP  RH WIND       PRES   REMARKS
BECKLEY        LGT RAIN  52  48  86 SE17G36   29.77F                  
LOGAN          CLOUDY    57  52  82 SE13G24   29.66F HAZE             
BLUEFIELD      RAIN      54  49  83 SE13G25   29.80F                  
LEWISBURG      CLOUDY    52  48  86 E7G16     29.87F                  
$$

WVZ047-240100-
Northern Mountains of West Virginia
  
CITY           SKY/WX    TMP DP  RH WIND       PRES   REMARKS
ELKINS         CLOUDY    54  47  77 S10       29.82F                  
$$

WVZ052-240100-
Eastern Panhandle of West Virginia
  
CITY           SKY/WX    TMP DP  RH WIND       PRES   REMARKS
MARTINSBURG    CLOUDY    51  29  42 SE7       30.00F                  
PETERSBURG     LGT RAIN  55  43  63 SE5       29.92F                  
$$

Return to Home page


Western Regional Climate Center, wrcc@dri.edu